DMSP 5D-2 F13 DEB, 40577

Orbit data source: Space-Track

DMSP 5D-2 F13 DEB, 40577 is space debris in SSO originally from a launch on Fri, 24 Mar 1995 UTC launched from the Air Force Western Test Range (AFWTR). Debris objects in space refer to the collection of defunct objects orbiting the Earth. Examples of debris include non-operational satellites, rocket bodies, and fragments generated from explosions, collisions, or faulty payload assembly.

Loading next visibility...
Identifier
40577, 1995-015EL
Orbit
SSO
Country
Flag of USUS
Related business
Manufacturer
Unknown
Mission
Spacecraft
Bus & Motor
Unknown
Mass
Unknown
Launch date (UTC)
1995-03-24 (31 years ago)
Launch vehicle
Unknown
Launch site
Air Force Western Test Range (AFWTR)
Object type
Payload
Rocket body
Debris
Shape & HBR
Unknown shape, 0.1 m
Radar Cross Section
Small (<0.1 m²)

Expand to show TLE details & history
Last TLE update: 23 hours ago

TLE from 23 hours ago
0 DMSP 5D-2 F13 DEB
1 40577U 95015EL  25340.05379759  .00015057  00000-0  39830-2 0  9995
2 40577  98.6642  20.7177 0010941  33.1096 327.0779 14.48861682555582
Epoch: 2025-12-06T01:17Z
TLE epoch observation values (Epoch: 2025-12-06T01:17:28.111Z)
Latitude
-0.00008°
Longitude
-73.73647°
Altitude
725.798 km
Speed
7.496 km/s
True Right ascension
01h 22m 52s
True Declination
0° 00' 00"
Sunlit
Object was in full shadow at epoch
Visualization orbit readout
Latitude
Unknown
Longitude
Unknown
Altitude
Unknown
Speed
Unknown
Apparent Right ascension
Unknown
Apparent Declination
Unknown
Sunlit
N/A
Visualization observer readout
Local Sidereal Time
21:59:01
Azimuth
Unknown
Elevation
Unknown
Doppler factor
Unknown
Orbital elements
Apogee altitude
734.26 km
Perigee altitude
718.714 km
Semi-major axis
7,104.624 km
Eccentricity
0.00109
Inclination
98.6642°
RAAN
20.7177°
Arg. of periapsis
33.1096°
True anomaly
327.00968°
Mean anomaly
327.0779°
Eccentric anomaly
327.0438°
Mean motion
3.62436 °/min
Orbital period
99.33 mins
BSTAR
0.003983

Documentation

Showing up to 5 results
|